Lamar, CO

2:46 PM MST on December 10, 2019 (GMT -0700)
Lamar Municipal

Weather History for KLAA - October, 2019

Change the Weather History Date:

Saturday, October 19, 2019

  Actual Average Record
Temperature  
Mean Temperature 51 °F 52 °F  
Max Temperature 71 °F 69 °F 91 °F (2003)
Min Temperature 30 °F 34 °F 15 °F (1989)
Degree Days  
Heating Degree Days 14 14  
Month to date heating degree days 215 190  
Since 1 July heating degree days 221 273  
Cooling Degree Days 0 0  
Month to date cooling degree days 1 8  
Year to date cooling degree days 1406 1120  
Moisture  
Dew Point 25 °F    
Average Humidity 50    
Maximum Humidity 85    
Minimum Humidity 15    
Precipitation  
Precipitation 0.00 in 0.02 in 0.16 in (1960)
Month to date precipitation 0.01 0.51  
Year to date precipitation 7.76 14.13  
Sea Level Pressure  
Sea Level Pressure 29.77 in    
Wind  
Wind Speed 11 mph (SSW)    
Max Wind Speed 27 mph    
Max Gust Speed 45 mph    
Visibility 10 miles    
Events      
T = Trace of Precipitation, MM = Missing Value Source: NWS Daily Summary

Daily Weather History Graph

Daily Weather History Graph

Search for Another Location

Airport or City:

Astronomy

Oct. 19, 2019 Rise Set
Actual Time 7:03 AM MDT 6:07 PM MDT
Civil Twilight 6:36 AM MDT 6:34 PM MDT
Nautical Twilight 6:05 AM MDT 7:05 PM MDT
Astronomical Twilight 5:35 AM MDT 7:35 PM MDT
Moon 10:22 PM MDT (10/19) 12:33 PM MDT (10/19)
Length of Visible Light 11h 57m
Length of Day
11h 04m
Waning Gibbous, 69% of the Moon is Illuminated
Oct 19
Waning Gibbous
Oct 21
Last Quarter
Oct 27
New
Nov 4
First Quarter
Nov 12
Full

Hourly Weather History & Observations

Time (MDT) Temp. Windchill Dew Point Humidity Pressure Visibility Wind Dir Wind Speed Gust Speed Precip Events Conditions
12:53 AM 43.0 °F 40.3 °F 32.0 °F 65% 29.78 in 10.0 mi West 4.6 mph - N/A   Clear
1:53 AM 39.9 °F 35.8 °F 30.9 °F 70% 29.80 in 10.0 mi SW 5.8 mph - N/A   Mostly Cloudy
2:53 AM 39.0 °F 35.7 °F 30.9 °F 73% 29.81 in 10.0 mi SW 4.6 mph - N/A   Clear
3:53 AM 36.0 °F 29.6 °F 30.0 °F 79% 29.84 in 10.0 mi West 8.1 mph - N/A   Clear
4:53 AM 37.0 °F 33.3 °F 28.9 °F 73% 29.86 in 10.0 mi WSW 4.6 mph - N/A   Clear
5:53 AM 32.0 °F 26.4 °F 26.1 °F 79% 29.90 in 10.0 mi WSW 5.8 mph - N/A   Clear
6:53 AM 30.9 °F 21.7 °F 26.1 °F 82% 29.92 in 10.0 mi SSW 11.5 mph - N/A   Clear
7:53 AM 36.0 °F 29.0 °F 28.0 °F 73% 29.94 in 10.0 mi SSW 9.2 mph - N/A   Clear
8:53 AM 48.0 °F - 28.9 °F 48% 29.94 in 10.0 mi WSW 9.2 mph - N/A   Clear
9:53 AM 54.0 °F - 28.9 °F 38% 29.93 in 10.0 mi West 6.9 mph - N/A   Clear
10:53 AM 59.0 °F - 19.9 °F 22% 29.90 in 10.0 mi North 5.8 mph - N/A   Clear
11:53 AM 61.0 °F - 19.9 °F 21% 29.89 in 10.0 mi Calm Calm - N/A   Clear
12:53 PM 64.9 °F - 19.9 °F 18% 29.84 in 10.0 mi North - - N/A   Clear
1:53 PM 68.0 °F - 21.0 °F 17% 29.79 in 10.0 mi South 8.1 mph 17.3 mph N/A   Clear
2:53 PM 69.1 °F - 19.9 °F 15% 29.76 in 10.0 mi SSW 4.6 mph 16.1 mph N/A   Clear
3:53 PM 70.0 °F - 19.9 °F 15% 29.73 in 10.0 mi South 10.4 mph 23.0 mph N/A   Clear
4:53 PM 70.0 °F - 19.0 °F 14% 29.69 in 10.0 mi South 12.7 mph 24.2 mph N/A   Clear
5:53 PM 64.9 °F - 19.9 °F 18% 29.71 in 10.0 mi South 13.8 mph 24.2 mph N/A   Clear
6:53 PM 59.0 °F - 19.0 °F 21% 29.70 in 10.0 mi SSE 15.0 mph - N/A   Clear
7:53 PM 57.9 °F - 19.0 °F 22% 29.67 in 10.0 mi SSE 16.1 mph - N/A   Clear
8:53 PM 57.9 °F - 21.9 °F 25% 29.63 in 10.0 mi South 19.6 mph 27.6 mph N/A   Clear
9:53 PM 57.9 °F - 26.1 °F 30% 29.58 in 10.0 mi South 24.2 mph 36.8 mph N/A   Clear
10:53 PM 57.0 °F - 27.0 °F 32% 29.55 in 10.0 mi South 26.5 mph 40.3 mph N/A   Clear
11:25 PM 57.9 °F - 28.0 °F 32% 29.61 in 7.0 mi South 32.2 mph 44.9 mph N/A   Partly Cloudy
11:53 PM 55.0 °F - 28.0 °F 35% 29.53 in 10.0 mi South 20.7 mph 32.2 mph N/A   Clear